Preview of NWS' New Version of Forecast
This preview is not operational and should not be used for support decisions.

Regional Weather Roundup (RWR)

Issued by National Weather Service (NWS)

                            
000
ASUS43 KLSX 162257
RWRMO 

WEATHER SUMMARY FOR MISSOURI
NATIONAL WEATHER SERVICE SPRINGFIELD MO
600 PM CDT SUN JUN 16 2019

NOTE: "FAIR" INDICATES FEW OR NO CLOUDS BELOW 12,000 FEET WITH NO
       SIGNIFICANT WEATHER AND/OR OBSTRUCTIONS TO VISIBILITY.
       CURRENT SKY AND/OR WEATHER CONDITIONS ARE NOT AVAILABLE FOR
       CHILLICOTHE AND FARMINGTON.

MOZ001>031-035>038-043-044-053-054-170000-
...NORTHERN AND WESTERN MISSOURI...
  
CITY           SKY/WX    TMP DP  RH WIND       PRES   REMARKS
KANSAS CTY INT PTSUNNY   85  59  41 N7        29.82F                  
LEE'S SUMMIT   PTSUNNY   79  64  60 SW5       29.83F                  
ST JOSEPH      MOSUNNY   84  62  47 NW8       29.82F                  
CHILLICOTHE      N/A     86  63  45 W3        29.83S                  
     
$$
MOZ066>068-077>081-088>096-101>105-170000-
...SOUTHWEST MISSOURI...
  
CITY           SKY/WX    TMP DP  RH WIND       PRES   REMARKS
SPRINGFIELD    SUNNY     78  65  63 NW6       29.83F                  
JOPLIN         SUNNY     78  66  66 N3        29.85F                  
BRANSON        PTSUNNY   81  63  54 N6        29.84F                  
               
$$
MOZ032>034-039>042-045>050-055>058-069>072-170000-
...CENTRAL MISSOURI...  
  
CITY           SKY/WX    TMP DP  RH WIND       PRES   REMARKS
COLUMBIA       NOT AVBL                                               
ROLLA          MOSUNNY   79  66  64 NW12      29.84S                  
SEDALIA        PTSUNNY   74  67  78 VRB3      29.84F                  
WARRENSBURG    PTSUNNY   79  68  69 S5        29.83F                  
               
$$
MOZ051-052-059>065-170000-
...EAST CENTRAL MISSOURI...
  
CITY           SKY/WX    TMP DP  RH WIND       PRES   REMARKS
ST LOUIS INTL  MOSUNNY   84  64  50 VRB5      29.80S                  
                   
$$
MOZ072>076-082>087-097>100-106>115-170000-
...SOUTH CENTRAL AND SOUTHEAST MISSOURI...
  
CITY           SKY/WX    TMP DP  RH WIND       PRES   REMARKS
CAPE GIRARDEAU CLOUDY    77  69  76 N5        29.81R THUNDER          
POPLAR BLUFF   LGT RAIN  70  69  97 S8        29.82F                  
WEST PLAINS    SUNNY     84  65  52 W8        29.83F                  
                                       
$$